Regional Weather Roundup
Issued by NWS

Home | Current Version | Previous Version | Graphics & Text | Print | Product List | Glossary On
Versions: 1 2 3 4 5 6 7 8 9 10 11 12 13 14 15 16 17 18 19 20 21 22 23 24 25 26 27 28 29 30 31 32 33 34 35 36 37 38 39 40 41 42 43 44 45 46 47 48 49 50
000
ASUS43 KBIS 131720
RWRND

NORTH DAKOTA REGIONAL WEATHER ROUNDUP
NATIONAL WEATHER SERVICE BISMARCK ND
1200 PM CDT SUN JUL 13 2014

NOTE: "FAIR" INDICATES FEW OR NO CLOUDS BELOW 12,000 FEET WITH NO
SIGNIFICANT WEATHER AND/OR OBSTRUCTIONS TO VISIBILITY.


NDZ001>003-009>011-017-131800-
NORTHWEST NORTH DAKOTA

CITY           SKY/WX    TMP DP  RH WIND       PRES   REMARKS
WILLISTON      SUNNY     72  38  29 NW14G25   30.16S
MINOT          SUNNY     68  42  38 NW22G31   30.07S
MINOT AFB      SUNNY     68  44  41 NW25G35   30.06S
$$

NDZ018>021-031>035-040>046-131800-
SOUTHWEST NORTH DAKOTA

CITY           SKY/WX    TMP DP  RH WIND       PRES   REMARKS
BISMARCK       SUNNY     71  41  33 NW15G23   30.10F
DICKINSON      SUNNY     69  45  41 W14       30.15F
GARRISON         N/A     68  43  40 NW17G25   30.10S
HETTINGER ARPT SUNNY     72  51  47 N10G17    30.17F
$$

NDZ004>008-012>016-024-026-027-054-131800-
NORTHEAST NORTH DAKOTA

CITY           SKY/WX    TMP DP  RH WIND       PRES   REMARKS
GRAND FORKS    PTSUNNY   69  46  43 NW20G31   29.93F
GRND FRKS AFB  MOSUNNY   69  46  42 NW21G30   29.95S
DEVILS LAKE    PTSUNNY   68  43  40 NW23      29.97S
$$

NDZ022-023-025-028>030-036>039-047>053-131800-
SOUTHEAST NORTH DAKOTA

CITY           SKY/WX    TMP DP  RH WIND       PRES   REMARKS
FARGO          SUNNY     73  43  33 NW18G30   29.96F
JAMESTOWN      SUNNY     70  44  39 NW17G24   30.02F
$$



USA.gov is the U.S. government's official web portal to all federal, state and local government web resources and services.